PAMO

Details ICAO PAMO (MOU)
Name Mountain Village
Region USA (Alaska)
Timezone America/Nome (UTC-8.0)
Plans Departing 2
Arriving 1
Stats Elevation 337 ft / 103 m (AMSL)
Location 62.094793° -163.682844°
Runways 1
Magnetic Variation 10.607° E
Sunrise 2018-05-22 13:42:45 UTC / 2018-05-22 05:42:45 Local
Sunset 2018-05-23 08:02:58 UTC / 2018-05-23 00:02:58 Local
Advertisement - Login to hide

Runways

ID Width Length Bearing (true) Bearing (mag) Surface Threshold Offset Overrun Length
02 75 ft / 23 m 3,492 ft / 1,064 m 32.50° 21.89° Gravel 0 ft / 0 m 0 ft / 0 m
20 75 ft / 23 m 3,492 ft / 1,064 m 212.51° 201.90° Gravel 0 ft / 0 m 0 ft / 0 m

Map

Weather


0- 5 10 15 20 25 30 35+ Temperature / ° C

Clouds and Precipitation
Forecast for 2018-05-22 18:00 UTC. Updated an hour ago

Ground ~20,000 ft ~40,000 ft Winds

METAR

PAMO 221818Z AUTO 33010KT 1SM UP BR OVC003 01/01 A2969 RMK AO2 VIS 1/4V5 UPE1709B1737 P0007 FZRANO

TAF

Not found

Frequencies

Recorded 118.35 MHz ASOS
Unicom 122.90 MHz CTAF
Warning: Do not use this data for real-world aviation or navigation. No guarantee of current accuracy is given.